Theta_e
310 312 310 309 309 310 309 308 309 309 311 311 313 314 314 314 315 315 316 315 315 316 316 315 313 313 312 311 311 311 312 312
310 308 308 309 308 308 308 308 310 310 310 309 312 313 313 314 314 314 314 314 313 313 314 313 312 311 309 310 311 311 312 312
306 306 306 305 306 307 306 308 309 310 309 309 311 313 313 313 313 313 313 313 313 313 312 312 312 311 307 308 309 309 311 311
306 304 304 304 304 307 308 308 308 309 308 308 311 311 312 312 313 312 312 311 311 311 310 310 310 309 301 301 303 308 310 310
303 303 305 306 306 308 308 309 309 307 307 307 308 308 309 310 309 309 309 309 309 309 308 307 306 307 300 299 301 307 310 310
303 306 306 307 308 309 309 308 307 307 307 307 307 309 309 307 306 307 307 308 307 306 305 304 302 303 299 298 300 308 309 310
307 306 306 309 308 308 307 306 308 306 306 307 307 307 306 307 307 307 305 305 303 303 302 301 301 302 298 297 301 307 308 308
306 306 307 308 308 309 307 307 306 307 307 307 308 307 307 303 306 303 302 300 300 301 301 302 301 301 297 297 300 306 305 304
307 307 307 306 307 307 307 307 306 308 308 307 306 306 304 303 302 301 300 299 300 301 301 303 304 301 302 297 297 302 301 301
305 305 305 308 309 307 306 305 308 307 307 307 305 303 302 301 302 301 300 299 299 300 303 304 304 302 299 298 297 297 301 301
305 305 306 307 307 308 305 305 306 306 306 304 302 302 302 303 300 300 299 300 300 302 302 301 300 301 301 299 298 298 300 302
306 305 305 303 304 304 304 304 305 303 302 302 301 302 301 303 302 302 302 302 302 301 299 299 299 300 299 300 304 305 302 305
306 303 302 302 305 304 304 304 304 301 301 302 302 301 302 302 303 300 302 301 297 298 298 300 300 299 298 296 299 304 306 302
304 302 301 301 303 303 303 304 304 302 301 301 301 302 303 303 303 301 294 294 294 293 293 296 303 295 294 295 294 295 295 296
306 304 303 304 304 304 305 305 305 303 302 302 303 304 305 306 306 304 302 299 295 295 294 293 293 293 294 295 295 296 295 299
304 303 305 304 304 302 305 305 305 306 305 299 304 305 306 306 304 304 302 301 300 301 300 297 294 294 295 295 296 300 306 306
304 302 302 302 301 302 305 307 306 307 306 305 306 305 304 303 304 303 303 303 302 303 304 302 302 296 297 298 299 312 310 309
305 301 302 302 302 304 310 309 309 309 307 299 300 304 304 304 308 308 307 308 309 308 309 312 314 307 311 309 309 309 309 309
306 306 305 303 303 306 309 310 310 308 307 306 299 304 304 305 308 310 310 309 309 309 309 306 289 308 308 310 310 311 311 311
308 307 307 306 307 307 309 310 312 309 307 305 305 304 305 305 311 312 312 310 308 309 310 308 292 312 311 311 312 311 312 312
Wind_Speed
7 6 11 11 10 12 11 9 9 7 9 9 5 8 9 9 10 10 8 8 9 10 7 6 5 4 4 5 6 7 8 9
7 11 13 13 12 8 9 7 10 12 10 10 9 9 8 8 7 10 9 11 12 11 9 7 6 5 4 8 10 10 9 8
11 13 11 9 7 8 8 8 10 11 11 9 9 11 8 7 8 10 10 10 10 10 11 10 9 6 8 10 11 12 9 8
12 11 10 9 6 11 12 11 10 11 11 13 12 9 5 9 8 9 9 10 10 10 12 11 11 6 9 12 12 11 11 7
11 6 8 10 12 10 10 10 9 10 11 13 12 13 13 11 9 9 9 9 10 10 9 11 10 8 13 12 14 10 10 7
6 9 14 11 11 10 8 8 8 11 10 11 10 11 10 9 9 10 11 11 11 9 10 10 9 8 12 12 13 9 6 6
11 10 8 6 10 12 12 8 12 11 10 10 12 10 11 10 10 12 11 10 9 8 6 6 7 6 11 13 13 5 5 6
7 7 8 7 10 10 11 12 13 12 9 10 9 10 13 11 12 11 10 7 5 4 5 4 4 5 9 13 15 7 8 8
8 9 8 10 11 9 11 11 12 11 10 11 11 11 10 10 7 6 8 7 7 5 4 3 3 6 8 10 12 7 5 5
11 10 11 12 12 10 12 12 11 9 7 10 11 9 7 7 7 6 8 6 5 4 4 3 4 6 9 8 8 7 7 4
12 13 12 8 10 13 14 16 15 13 13 13 9 10 8 9 7 8 5 7 6 7 7 7 7 6 6 9 8 8 9 5
12 12 14 14 13 13 12 13 13 12 11 11 9 8 7 7 6 5 6 7 6 7 7 6 5 5 6 6 3 2 2 2
10 11 11 12 13 13 12 11 11 9 8 8 8 6 7 6 10 9 8 9 6 5 5 5 6 6 5 6 7 7 6 7
11 10 9 10 10 9 9 8 8 7 7 7 6 4 4 4 4 6 7 5 6 9 8 7 7 7 9 11 11 13 14 12
10 11 9 8 7 9 8 7 7 6 7 7 4 4 5 4 5 4 3 2 6 10 11 11 8 5 9 10 10 10 8 5
9 9 11 12 12 12 7 7 7 8 7 7 6 7 6 8 8 9 7 7 7 6 7 7 7 8 9 6 1 5 2 4
7 9 10 10 9 9 6 4 6 8 7 5 6 6 7 7 6 6 5 5 5 2 2 3 3 1 4 7 10 9 6 5
10 8 7 7 7 7 8 5 6 8 9 11 8 5 5 5 7 9 7 5 6 3 3 3 1 4 5 7 7 6 6 6
7 6 3 5 6 6 8 7 5 4 5 6 6 5 5 5 7 7 4 6 7 7 7 4 5 6 6 4 3 4 3 5
5 8 5 5 7 7 7 5 5 7 6 4 3 1 2 1 3 3 5 7 6 7 8 7 3 8 8 9 10 10 11 11
Wind_Direction
345 302 8 348 345 356 353 329 325 324 310 299 2 329 322 325 326 333 335 320 328 332 333 324 322 337 338 336 313 335 319 301
8 354 343 345 12 344 333 342 331 326 323 337 352 299 308 325 350 320 338 340 345 340 340 330 330 343 7 353 339 333 337 310
2 346 2 357 344 351 309 329 351 336 341 334 319 310 308 347 327 331 349 349 354 352 348 349 0 8 32 355 338 322 331 316
358 360 0 332 323 352 357 358 344 328 330 330 333 301 325 341 327 341 355 355 359 350 3 11 1 28 13 359 335 319 320 303
12 344 302 359 359 339 350 331 336 338 353 339 336 341 355 7 356 355 357 351 347 15 22 11 356 351 12 342 331 304 313 306
321 355 6 348 340 338 338 351 340 328 337 348 350 355 15 22 359 357 353 359 13 11 15 7 355 352 356 342 328 289 308 334
7 8 318 332 340 341 5 342 344 353 347 347 7 9 10 0 357 2 12 2 17 15 7 348 337 358 358 342 337 323 332 46
342 324 331 354 343 344 346 358 344 3 359 12 18 12 13 0 1 17 8 356 354 346 328 336 17 336 29 2 358 8 29 25
346 327 21 22 6 345 359 6 1 359 359 25 21 15 4 29 10 21 3 12 5 8 17 339 30 31 44 18 11 27 19 22
336 11 11 7 21 3 359 2 357 7 11 10 22 36 16 7 19 15 12 14 22 11 1 46 52 72 40 16 23 28 15 44
19 17 28 11 2 12 9 15 2 4 19 41 33 24 21 27 19 14 19 15 19 21 22 39 30 16 13 8 34 31 45 65
26 11 25 21 19 27 29 9 19 28 31 28 27 33 15 16 29 39 44 26 12 28 28 21 19 17 13 3 359 40 95 96
47 38 23 17 13 12 17 7 11 13 24 33 33 32 30 44 46 29 42 44 27 18 6 25 19 25 11 1 13 28 31 22
47 40 26 10 7 7 4 357 357 20 35 34 24 35 37 35 74 68 37 28 42 37 25 28 72 40 19 26 36 42 38 29
38 26 32 23 21 31 17 27 27 49 33 25 21 25 36 43 59 50 65 56 56 52 33 35 41 38 35 32 28 52 51 92
48 28 25 23 26 32 17 41 33 44 47 30 35 30 30 43 45 46 41 33 26 18 16 30 37 54 62 54 139 200 135 154
62 39 21 16 19 21 14 30 55 56 58 31 42 46 46 40 41 45 50 49 37 353 317 344 10 53 176 208 239 82 72 58
60 38 11 4 15 21 14 34 64 56 63 51 51 41 29 37 58 65 70 71 86 157 107 80 325 246 82 61 44 32 28 19
64 67 45 26 360 355 5 13 81 88 81 69 50 61 53 56 78 72 68 83 75 70 65 40 352 61 62 55 62 72 52 30
88 79 60 29 11 355 18 14 63 92 84 99 113 118 71 18 73 123 91 73 61 56 70 60 46 71 66 59 52 42 42 39